星链-30610 (STARLINK-30610 )

导读 | 星芒AI

STARLINK-30610 是 SpaceX Starlink 卫星互联网项目中的一颗低轨道卫星,属于第三代星链卫星(v1.5 或 v2 架构)。该卫星于 2023 年发射,旨在为全球用户提供高速、低延迟的互联网服务。它运行在约 550 公里的轨道高度,配备先进通信设备和激光链路,以提升网络性能和卫星间通信能力。作为 Starlink 卫星群的一部分,STARLINK-30610 贡献于扩大覆盖范围和提升系统稳定性,支持偏远地区和移动用户的网络接入需求。

基本信息
目录编号:
58082
目录名称:
STARLINK-30610
国际标识:
2023-160H
轨道中心:
EARTH
卫星名称:
星链-30610
卫星全名:
星链-30610 (STARLINK-30610 )
卫星状态:
在轨 (已飞行744 天)
发射日期:
2023-10-18 UTC
国别 :
美国 (US)
星等 :
--
轨道信息
数据来源 国际轨道数据 AOE轨道数据
星历时间 2025-10-31T00:53:47+0800
14小时前
查看轨道信息
2025-10-25T14:00:00+0800
6天前
查看轨道信息
半长轴 6937.216km 6937.223km
偏心率 0.0001453 0.0000021
轨道倾角 43.005° 43.004°
近地点辐角 267.114° 343.874°
升交点赤经 66.649° 96.289°
平近点角 92.954° 0.800°
近地点 558.073km 559.073km
远地点 560.089km 559.103km
周期 95.838分钟 95.838分钟
每日圈数 15.025362 15.02534
详细信息
固有亮度:
5
最大亮度:
0.3
卫星平台:
Starlink v2.0 mini
覆盖范围:
全球
运营商:
太空探索技术公司
运营商所在国:
美国
制造商(研发单位):
太空探索技术公司
制造商所在国:
美国
使用方式:
暂无
卫星简介
星链(Starlink)计划是由太空探索技术公司(SpaceX)提出的一个巨型低轨卫星互联网星座项目,计划在2019年至2024年间在太空搭建由约1.2万颗卫星组成的“星链”网络,其中1584颗将部署在地球上空550千米处的近地轨道,并从2020年开始工作。该卫星仍在工作。
2D轨道图
3D轨道图
轨道高度分析图
轨道倾角分析图
轨道综合分析图
查看轨道综合分析图